Header for Extended Forecast Station List Page

Search by: ID | Name | Date | Parm | Value | Avg | % Avg
Sort by: ID | Name | Date | Parm | Value | Avg | % Avg

Enter search or view all records.

Click on id for station plot
#IDNameDateParmValueAvg% Avg
0BULO3BULLY CREEK-BULLY CREEK DAM04-08-2024INFLOW (KAF)51481
1MYKO3MCKAY CREEK-NEAR PILOT ROCK04-08-2024DISCHARGE (KAF)81746
2BERO3MALHEUR-AGENCY VALLEY DAM04-08-2024INFLOW (KAF)404198
3WRMO3MALHEUR-WARM SPRINGS DAM04-08-2024INFLOW (KAF)5844132
4GIBO3UMATILLA-NEAR GIBBON04-08-2024DISCHARGE (KAF)585999
5SATI1ST MARIES-NEAR SANTA04-08-2024DISCHARGE (KAF)619366
6UMAO3UMATILLA-NEAR UMATILLA04-08-2024DISCHARGE (KAF)649071
7DLGM8CLARK FORK-AT DEER LODGE04-08-2024DISCHARGE (KAF)657488
8LWRI1LITTLE WOOD-LITTLE WOOD DAM04-08-2024INFLOW (KAF)6951137
9KADW1KACHESS-KACHESS DAM04-08-2024INFLOW (KAF)708880
10RIDI1WILLOW CREEK-RIRIE DAM04-08-2024INFLOW (KAF)7434217
11KEDW1YAKIMA-KEECHELUS LAKE04-08-2024INFLOW (KAF)8110081
12EASW1YAKIMA-AT EASTON04-08-2024DISCHARGE (KAF)869392
13BUDW1BUMPING-BUMPING LAKE DAM04-08-2024INFLOW (KAF)929893
14TCHW1WALLA WALLA-NEAR TOUCHET04-08-2024DISCHARGE (KAF)9610393
15TNAW1TEANAWAY-BELOW FORKS04-08-2024DISCHARGE (KAF)9810692
16PDTO3UMATILLA-AT PENDLETON04-08-2024DISCHARGE (KAF)10210696
17DEDI1DEADWOOD-NEAR LOWMAN04-08-2024INFLOW (KAF)115110104
18ARDW1ENTIAT-NEAR ARDENVOIR04-08-2024DISCHARGE (KAF)14518181
19PIHI1PORTNEUF-AT POCATELLO04-08-2024DISCHARGE (KAF)15350303
20RILW1TIETON-RIMROCK LAKE NEAR RIMROCK04-08-2024INFLOW (KAF)15917491
21MACI1BIG LOST-MACKAY RESERVOIR NEAR MACKAY04-08-2024INFLOW (KAF)15990177
22IPDI1HENRYS FORK-ISLAND PARK DAM04-08-2024INFLOW (KAF)17218195
23HWRI1BIG LOST-AT HOWELL RANCH NEAR CHILLY04-08-2024DISCHARGE (KAF)180129139
24DRMM8CLARK FORK-NR DRUMMOND04-08-2024DISCHARGE (KAF)19321789
25HODO3HOOD-NEAR TUCKER BRIDGE04-08-2024DISCHARGE (KAF)19419699
26STRM8ST. REGIS-NEAR ST. REGIS04-08-2024DISCHARGE (KAF)20223187
27RCCM8ROCK CREEK-NEAR CLINTON04-08-2024DISCHARGE (KAF)20323786
28HOTI1BRUNEAU-NEAR HOT SPRINGS04-08-2024DISCHARGE (KAF)211143147
29MAGI1BIG WOOD-MAGIC DAM04-08-2024INFLOW (KAF)214151142
30HALI1BIG WOOD-AT HAILEY04-08-2024DISCHARGE (KAF)230183126
31UNDW1WHITE SALMON-NEAR UNDERWOOD04-08-2024DISCHARGE (KAF)24428785
32CLFW1NACHES-NEAR CLIFFDEL04-08-2024DISCHARGE (KAF)29333887
33WSRI1WEISER-NEAR WEISER04-08-2024DISCHARGE (KAF)296291102
34CLUW1CLE ELUM-CLE ELUM LAKE04-08-2024INFLOW (KAF)29733888
35PARW1YAKIMA-NEAR PARKER04-08-2024DISCHARGE (KAF)31748865
36CHEI1FALL RIVER-NEAR CHESTER04-08-2024DISCHARGE (KAF)318302106
37CSDI1NF PAYETTE-CASCADE DAM04-08-2024INFLOW (KAF)35041784
38TEAI1TETON-NEAR ST. ANTHONY04-08-2024DISCHARGE (KAF)385335115
39PITW1KLICKITAT-NEAR PITT04-08-2024DISCHARGE (KAF)415415100
40BONM8BLACKFOOT-NEAR BONNER04-08-2024DISCHARGE (KAF)42469661
41OWYO3OWYHEE-OWYHEE DAM04-08-2024INFLOW (KAF)424181234
42MONO3NF JOHN DAY-AT MONUMENT04-08-2024DISCHARGE (KAF)42443498
43ARAI1SF BOISE-ANDERSON RANCH DAM04-08-2024INFLOW (KAF)430375115
44NACW1NACHES-NEAR NACHES04-08-2024DISCHARGE (KAF)44248491
45MILI1SNAKE-AT MILNER04-08-2024DISCHARGE (KAF)46353877
46PATW1METHOW-NEAR PATEROS04-08-2024DISCHARGE (KAF)49079462
47CHDW1CHELAN-LAKE CHELAN DAM04-08-2024INFLOW (KAF)51293755
48PARI1BOISE-NEAR PARMA04-08-2024DISCHARGE (KAF)580257226
49ANTI1HENRYS FORK-AT ST. ANTHONY04-08-2024DISCHARGE (KAF)594569104
50BIGI1BOISE-AT GLENWOOD BRIDGE04-08-2024DISCHARGE (KAF)608289210
51PRTI1PRIEST-NEAR PRIEST RIVER04-08-2024DISCHARGE (KAF)61770488
52KIOW1YAKIMA-AT KIONA04-08-2024DISCHARGE (KAF)62078179
53SERO3JOHN DAY-AT SERVICE CK04-08-2024DISCHARGE (KAF)669611109
54REXI1HENRYS FORK-AT REXBURG04-08-2024DISCHARGE (KAF)682648105
55UMTW1YAKIMA-AT UMTANUM04-08-2024DISCHARGE (KAF)71679191
56JLKW4SNAKE-JACKSON LAKE AT DAM04-08-2024INFLOW (KAF)726682107
57BITM8BITTERROOT-NEAR MISSOULA04-08-2024DISCHARGE (KAF)761105972
58TONW1OKANOGAN-NEAR TONASKET04-08-2024DISCHARGE (KAF)812141058
59ABOM8CLARK FORK-ABOVE MISSOULA04-08-2024DISCHARGE (KAF)855122370
60PESW1WENATCHEE-AT PESHASTIN04-08-2024DISCHARGE (KAF)971125178
61EMMI1PAYETTE-NEAR EMMETT04-08-2024DISCHARGE (KAF)997108692
62TRYO3GRANDE RONDE-TROY04-08-2024DISCHARGE (KAF)999110890
63WGCM8MF FLATHEAD-NEAR WEST GLACIER04-08-2024DISCHARGE (KAF)1131139481
64FCFM8NF FLATHEAD-NEAR COLUMBIA FALLS04-08-2024DISCHARGE (KAF)1149145279
65MODO3DESCHUTES-AT MOODY NR BIGGS04-08-2024DISCHARGE (KAF)12741262101
66LUCI1BOISE-LUCKY PEAK DAM04-08-2024INFLOW (KAF)12831114115
67LAUW1KETTLE-AT LAURIER04-08-2024DISCHARGE (KAF)1432167785
68HHWM8SF FLATHEAD-HUNGRY HORSE DAM04-08-2024INFLOW (KAF)1440173283
69SPOW1SPOKANE-AT SPOKANE04-08-2024DISCHARGE (KAF)1490212870
70COEI1COEUR D ALENE-COEUR D ALENE LAKE04-08-2024INFLOW (KAF)1535202676
71BELM8CLARK FORK-BELOW MISSOULA04-08-2024DISCHARGE (KAF)1616232969
72JKSW4SNAKE-NEAR JACKSON04-08-2024DISCHARGE (KAF)16281491109
73LLKW1SPOKANE-AT LONGLAKE04-08-2024INFLOW (KAF)1681237471
74DWRI1NF CLEARWATER-DWORSHAK DAM04-08-2024INFLOW (KAF)1724216380
75ALPW4SNAKE-NEAR ALPINE04-08-2024DISCHARGE (KAF)19831880105
76BFTI1SNAKE-NEAR BLACKFOOT04-08-2024DISCHARGE (KAF)19861144174
77SNAI1SNAKE-AT BLACKFOOT04-08-2024DISCHARGE (KAF)20381169174
78SRGM8CLARK FORK-AT ST REGIS04-08-2024DISCHARGE (KAF)2183306571
79SWAI1SNAKE-BELOW SWAN FALLS04-08-2024DISCHARGE (KAF)23991764136
80SHYI1SNAKE-NEAR SHELLEY04-08-2024DISCHARGE (KAF)25551819140
81AFRI1SNAKE-AMERICAN FALLS RESERVOIR04-08-2024INFLOW (KAF)26521732153
82SIFI1SNAKE-AB EAGLE ROCK NR IDAHO FALLS04-08-2024DISCHARGE (KAF)27402000137
83PLDI1SF SNAKE-PALISADES DAM04-08-2024INFLOW (KAF)29302631111
84HEII1SNAKE-NEAR HEISE04-08-2024DISCHARGE (KAF)33742844119
85CFMM8FLATHEAD-AT COLUMBIA FALLS04-08-2024DISCHARGE (KAF)3458399687
86ORFI1CLEARWATER-AT OROFINO04-08-2024DISCHARGE (KAF)3529391590
87LEOI1KOOTENAI-AT LEONIA04-08-2024DISCHARGE (KAF)3945408597
88KERM8FLATHEAD-SELI’Š KSANKA QLISPE’ DAM04-08-2024INFLOW (KAF)4092483385
89LYDM8KOOTENAI-LIBBY DAM04-08-2024INFLOW (KAF)4589511490
90WHBI1SALMON-AT WHITEBIRD04-08-2024DISCHARGE (KAF)4623505891
91WEII1SNAKE-AT WEISER04-08-2024DISCHARGE (KAF)48513623134
92SPDI1CLEARWATER-AT SPALDING04-08-2024DISCHARGE (KAF)5082608184
93BRNI1SNAKE-BROWNLEE DAM04-08-2024INFLOW (KAF)53164037132
94NOXM8CLARK FORK-NOXON RAPIDS DAM04-08-2024INFLOW (KAF)5821781375
95CABI1CLARK FORK-CABINET GORGE DAM04-08-2024INFLOW (KAF)6418864174
96ALFW1PEND OREILLE-ALBENI FALLS DAM04-08-2024INFLOW (KAF)7546968378
97ANAW1SNAKE-NEAR ANATONE04-08-2024DISCHARGE (KAF)109291139396
98LGDW1SNAKE-LOWER GRANITE DAM04-08-2024INFLOW (KAF)160111797089
99LGSW1SNAKE-LITTLE GOOSE DAM04-08-2024INFLOW (KAF)160111797289
100LMNW1SNAKE-LOWER MONUMENTAL DAM04-08-2024INFLOW (KAF)160561799189
101IHDW1SNAKE-ICE HARBOR DAM04-08-2024INFLOW (KAF)160561799889
102CIBW1COLUMBIA-AT INTL BOUNDARY04-08-2024DISCHARGE (KAF)244082934483
103CHJW1COLUMBIA-CHIEF JOSEPH DAM04-08-2024INFLOW (KAF)260293043686
104WELW1COLUMBIA-WELLS DAM04-08-2024INFLOW (KAF)273353279483
105GCDW1COLUMBIA-GRAND COULEE DAM04-08-2024INFLOW (KAF)276033140788
106RRHW1COLUMBIA-ROCKY REACH DAM04-08-2024INFLOW (KAF)276773379782
107WANW1COLUMBIA-WANAPUM DAM04-08-2024INFLOW (KAF)286343511182
108PRWW1COLUMBIA-PRIEST RAPIDS DAM04-08-2024INFLOW (KAF)286353518481
109MCDW1COLUMBIA-MCNARY DAM04-08-2024INFLOW (KAF)454455477383
110JDAO3COLUMBIA-JOHN DAY DAM04-08-2024INFLOW (KAF)472125558685
111TDAO3COLUMBIA-THE DALLES DAM04-08-2024INFLOW (KAF)474715578285
112BONO3COLUMBIA-BONNEVILLE DAM04-08-2024INFLOW (KAF)483415766684
113BFEI1KOOTENAI-AT BONNERS FERRY04-08-2024STAGE (FT)MMM
114HOPI1PEND OREILLE-LAKE PEND OREILLE NR HOPE04-08-2024LAKE ELEVATION (FT)MMM
115SJMI1ST JOE-AT ST MARIES04-08-2024STAGE (FT)MMM